Weather History for Evansville, IN

Change the Weather History Date:

Tuesday, March 12, 2013

  Actual Average Record
Temperature  
Mean Temperature 41 °F 45 °F  
Max Temperature 50 °F 55 °F 79 °F (1967)
Min Temperature 31 °F 34 °F 11 °F (1998)
Degree Days  
Heating Degree Days 24 20  
Month to date heating degree days 303 266  
Since 1 July heating degree days 3666 3840  
Cooling Degree Days 0 0  
Month to date cooling degree days 0 0  
Year to date cooling degree days 0 0  
Moisture  
Dew Point 26 °F    
Average Humidity 55    
Maximum Humidity 75    
Minimum Humidity 34    
Precipitation  
Precipitation 0.00 in 0.13 in 2.61 in (2006)
Month to date precipitation 0.45 1.49  
Year to date precipitation 9.98 7.76  
Snow  
Snow 0.00 in 0.00 in 3.10 in (1970)
Month to date snowfall T 0.6  
Since 1 July snowfall 12.3 11.3  
Snow Depth 0.00 in    
Sea Level Pressure  
Sea Level Pressure 30.08 in    
Wind  
Wind Speed 9 mph (West)    
Max Wind Speed 20 mph    
Max Gust Speed 24 mph    
Visibility 10 miles    
Events      
T = Trace of Precipitation, MM = Missing Value Source: NWS Daily Summary

Daily Weather History Graph

Daily Weather History Graph

Search for Another Location

Airport:

Trip Planner

Search our weather history database for the weather conditions in past years. The results will help you decide how hot, cold, wet, or windy it might be!

Date:

Astronomy

Mar. 12, 2013 Rise Set
Actual Time 7:05 AM CDT 6:54 PM CDT
Civil Twilight 6:39 AM CDT 7:20 PM CDT
Nautical Twilight 6:08 AM CDT 7:51 PM CDT
Astronomical Twilight 5:37 AM CDT 8:22 PM CDT
Moon 7:13 AM CDT (3/12) 8:07 PM CDT (3/12)
Length of Visible Light 12h 41m
Length of Day
11h 49m
New Moon, 1% of the Moon is Illuminated
Mar 12
New Moon
Mar 19
First Quarter
Mar 27
Full
Apr 2
Last Quarter
Apr 10
New

Hourly Weather History & Observations

Time (CDT) Temp. Windchill Dew Point Humidity Pressure Visibility Wind Dir Wind Speed Gust Speed Precip Events Conditions
12:54 AM 36.0 °F 28.5 °F 26.1 °F 67% 30.01 in 10.0 mi West 10.4 mph 19.6 mph N/A   Overcast
1:54 AM 36.0 °F 29.6 °F 26.1 °F 67% 30.01 in 10.0 mi West 8.1 mph - N/A   Overcast
2:38 AM 35.6 °F 29.9 °F 26.6 °F 70% 30.00 in 10.0 mi West 6.9 mph - N/A   Overcast
2:54 AM 36.0 °F 31.1 °F 26.1 °F 67% 30.01 in 10.0 mi West 5.8 mph - N/A   Overcast
3:54 AM 36.0 °F 30.3 °F 25.0 °F 64% 30.01 in 10.0 mi West 6.9 mph - N/A   Overcast
4:54 AM 34.0 °F 28.8 °F 27.0 °F 75% 30.03 in 10.0 mi West 5.8 mph - N/A   Mostly Cloudy
5:54 AM 33.1 °F 28.7 °F 27.0 °F 78% 30.04 in 10.0 mi WSW 4.6 mph - N/A   Overcast
6:54 AM 33.1 °F 26.9 °F 26.1 °F 75% 30.06 in 10.0 mi West 6.9 mph - N/A   Partly Cloudy
7:54 AM 33.1 °F 27.7 °F 26.1 °F 75% 30.07 in 10.0 mi West 5.8 mph - N/A   Scattered Clouds
8:54 AM 36.0 °F 28.5 °F 26.1 °F 67% 30.10 in 10.0 mi West 10.4 mph - N/A   Clear
9:54 AM 37.9 °F 31.5 °F 25.0 °F 60% 30.11 in 10.0 mi WNW 9.2 mph - N/A   Clear
10:54 AM 39.9 °F 35.8 °F 26.1 °F 58% 30.12 in 10.0 mi Variable 5.8 mph - N/A   Clear
11:54 AM 43.0 °F 38.2 °F 27.0 °F 53% 30.13 in 10.0 mi WSW 8.1 mph 17.3 mph N/A   Clear
12:54 PM 46.0 °F 41.0 °F 27.0 °F 47% 30.12 in 10.0 mi West 10.4 mph 17.3 mph N/A   Clear
1:54 PM 48.0 °F - 26.1 °F 42% 30.10 in 10.0 mi West 13.8 mph - N/A   Clear
2:54 PM 46.9 °F - 25.0 °F 42% 30.09 in 10.0 mi West 12.7 mph 21.9 mph N/A   Clear
3:54 PM 48.9 °F - 23.0 °F 36% 30.08 in 10.0 mi West 11.5 mph - N/A   Clear
4:54 PM 48.9 °F - 21.9 °F 35% 30.08 in 10.0 mi West 13.8 mph 19.6 mph N/A   Clear
5:54 PM 48.0 °F - 21.9 °F 36% 30.09 in 10.0 mi WNW 11.5 mph 20.7 mph N/A   Clear
6:54 PM 44.1 °F 39.5 °F 23.0 °F 43% 30.09 in 10.0 mi West 8.1 mph - N/A   Clear
7:54 PM 43.0 °F 41.3 °F 25.0 °F 49% 30.10 in 10.0 mi WNW 3.5 mph - N/A   Overcast
8:54 PM 43.0 °F 38.8 °F 28.0 °F 56% 30.12 in 10.0 mi WNW 6.9 mph - N/A   Partly Cloudy
9:54 PM 41.0 °F 37.1 °F 28.9 °F 62% 30.14 in 10.0 mi NW 5.8 mph - N/A   Partly Cloudy
10:54 PM 39.0 °F 32.8 °F 28.0 °F 65% 30.16 in 10.0 mi WNW 9.2 mph - N/A   Scattered Clouds
11:54 PM 37.9 °F 29.6 °F 23.0 °F 55% 30.17 in 10.0 mi WNW 13.8 mph - N/A   Clear